Location: Sternwarte ZA, Rosenfeld-Brittheim
(48.2889°N, 8.6789°E)
Time: 03:52:56
(UTC+02:00)

ISS - Pass Details

Date: 28 May 2017
Orbit: 401 x 408 km, 51.6° (Epoch: 25 June)

Event Time Altitude Azimuth Distance (km) Brightness Sun altitude
Rises 03:14:18 0° 290° (WNW) 2,337 0.0 -15.9°
Reaches altitude 10° 03:16:32 10° 279° (W) 1,471 -1.2 -15.7°
Enters shadow 03:17:04 13° 274° (W) 1,282 -1.5 -15.7°
